Regional Weather Roundup
Issued by NWS

Home | Current Version | Previous Version | Graphics & Text | Print | Product List | Glossary Off
Versions: 1 2 3 4 5 6 7 8 9 10 11 12 13 14 15 16 17 18 19 20 21 22 23 24 25 26 27 28 29 30 31 32 33 34 35 36 37 38 39 40 41 42 43 44 45 46 47 48 49 50

000
ASUS45 KCYS 301610
RWRWY

WYOMING REGIONAL WEATHER ROUNDUP
NATIONAL WEATHER SERVICE CHEYENNE WY
1000 AM MDT THU JUL 30 2015

NOTE:  "FAIR" INDICATES FEW OR NO CLOUDS BELOW 12,000 FEET
WITH NO SIGNIFICANT WEATHER AND/OR OBSTRUCTIONS TO VISIBILITY.

WYZ001-301700-
...YELLOWSTONE NATIONAL PARK...

CITY           SKY/WX    TMP DP  RH WIND       PRES   REMARKS
LK YELLOWSTONE NOT AVBL
W YELLOWSTONE  NOT AVBL

$$
WYZ002>013-054>058-071-098>099-301700-
...NORTHERN WYOMING...

CITY           SKY/WX    TMP DP  RH WIND       PRES   REMARKS
JACKSON        NOT AVBL
CODY           NOT AVBL
GREYBULL       NOT AVBL
WORLAND        NOT AVBL
SHERIDAN       NOT AVBL
BUFFALO        NOT AVBL
GILLETTE       NOT AVBL
HULETT         NOT AVBL
NEWCASTLE      NOT AVBL

$$
WYZ014>020-022>026-101>103-301700-
...CENTRAL WYOMING...

CITY           SKY/WX    TMP DP  RH WIND       PRES   REMARKS
BIG PINEY      NOT AVBL
PINEDALE       NOT AVBL
DUBOIS         NOT AVBL
LANDER         NOT AVBL
RIVERTON       NOT AVBL
CASPER         NOT AVBL
DOUGLAS        NOT AVBL

$$
WYZ021-027>030-104>119-301700-
...SOUTHERN WYOMING...

CITY           SKY/WX    TMP DP  RH WIND       PRES   REMARKS
EVANSTON       NOT AVBL
KEMMERER       NOT AVBL
FORT BRIDGER   NOT AVBL
ROCK SPRINGS   NOT AVBL
DIXON          NOT AVBL
RAWLINS        NOT AVBL
SARATOGA       NOT AVBL
LARAMIE        NOT AVBL
CHEYENNE       NOT AVBL
TORRINGTON     NOT AVBL
PINE BLUFFS    NOT AVBL

$$



USA.gov is the U.S. government's official web portal to all federal, state and local government web resources and services.